Morgantown, WV

12:25 AM EDT on August 26, 2016 (GMT -0400)
Morgantown Municipal-Hart

Weather History for KMGW - November, 2012

Change the Weather History Date:

Thursday, November 8, 2012

  Actual Average Record
Temperature  
Mean Temperature 35 °F 48 °F  
Max Temperature 46 °F 57 °F 73 °F (2009)
Min Temperature 23 °F 38 °F 19 °F (1971)
Degree Days  
Heating Degree Days 30 18  
Month to date heating degree days 206 132  
Since 1 July heating degree days 624 574  
Cooling Degree Days 0 0  
Month to date cooling degree days 0 0  
Year to date cooling degree days 1141 813  
Moisture  
Dew Point 26 °F    
Average Humidity 69    
Maximum Humidity 92    
Minimum Humidity 45    
Precipitation  
Precipitation 0.00 in 0.11 in 1.09 in (1996)
Month to date precipitation 0.09 0.88  
Year to date precipitation 29.91 36.34  
Sea Level Pressure  
Sea Level Pressure 30.17 in    
Wind  
Wind Speed 2 mph (SW)    
Max Wind Speed 8 mph    
Max Gust Speed 14 mph    
Visibility 9 miles    
Events      
T = Trace of Precipitation, MM = Missing Value Source: NWS Daily Summary

Daily Weather History Graph

Daily Weather History Graph

Search for Another Location

Airport or City:

Trip Planner

Search our weather history database for the weather conditions in past years. The results will help you decide how hot, cold, wet, or windy it might be!

Date:

Astronomy

Nov. 08, 2012 Rise Set
Actual Time 6:56 AM EST 5:09 PM EST
Civil Twilight 6:28 AM EST 5:38 PM EST
Nautical Twilight 5:55 AM EST 6:10 PM EST
Astronomical Twilight 5:24 AM EST 6:42 PM EST
Moon 12:51 AM EST (11/8) 1:49 PM EST (11/8)
Length of Visible Light 11h 10m
Length of Day
10h 13m
Waning Crescent, 33% of the Moon is Illuminated
Nov 8
Waning Crescent
Nov 13
New
Nov 20
First Quarter
Nov 28
Full
Dec 6
Last Quarter

Hourly Weather History & Observations

Time (EST) Temp. Windchill Dew Point Humidity Pressure Visibility Wind Dir Wind Speed Gust Speed Precip Events Conditions
12:53 AM 30.0 °F - 26.1 °F 85% 30.06 in 9.0 mi Calm Calm - N/A   Clear
2:53 AM 27.0 °F - 24.1 °F 89% 30.08 in 9.0 mi Calm Calm - N/A   Clear
3:53 AM 28.0 °F - 24.1 °F 85% 30.09 in 9.0 mi Calm Calm - N/A   Clear
4:53 AM 27.0 °F - 24.1 °F 89% 30.11 in 10.0 mi Calm Calm - N/A   Clear
5:53 AM 24.1 °F - 21.9 °F 91% 30.12 in 7.0 mi Calm Calm - N/A   Clear
6:53 AM 26.1 °F 21.9 °F 21.9 °F 84% 30.14 in 8.0 mi SSW 3.5 mph - N/A   Clear
7:53 AM 25.0 °F - 23.0 °F 92% 30.18 in 5.0 mi Calm Calm - N/A   Clear
8:53 AM 30.0 °F - 26.1 °F 85% 30.19 in 8.0 mi Calm Calm - N/A   Clear
9:53 AM 34.0 °F 31.0 °F 25.0 °F 70% 30.21 in 10.0 mi WNW 3.5 mph - N/A   Clear
10:50 AM 37.4 °F - 24.8 °F 60% 30.18 in 10.0 mi Calm Calm - N/A   Mostly Cloudy
10:53 AM 37.0 °F - 25.0 °F 62% 30.21 in 10.0 mi Calm Calm - N/A   Mostly Cloudy
12:49 PM 41.0 °F 37.1 °F 26.6 °F 57% 30.15 in 10.0 mi West 5.8 mph - N/A   Scattered Clouds
12:53 PM 41.0 °F - 27.0 °F 57% 30.18 in 10.0 mi Calm Calm - N/A   Scattered Clouds
1:53 PM 43.0 °F 39.5 °F 27.0 °F 53% 30.16 in 10.0 mi WSW 5.8 mph - N/A   Partly Cloudy
2:53 PM 45.0 °F 41.2 °F 27.0 °F 49% 30.15 in 10.0 mi West 6.9 mph - N/A   Clear
3:53 PM 46.0 °F - 27.0 °F 47% 30.15 in 10.0 mi Calm Calm - N/A   Clear
4:53 PM 43.0 °F 39.5 °F 27.0 °F 53% 30.17 in 10.0 mi West 5.8 mph - N/A   Clear
5:53 PM 42.1 °F - 27.0 °F 55% 30.19 in 10.0 mi Calm Calm - N/A   Clear
6:53 PM 37.9 °F - 27.0 °F 65% 30.21 in 10.0 mi Calm Calm - N/A   Clear
7:53 PM 34.0 °F 31.0 °F 27.0 °F 75% 30.20 in 10.0 mi South 3.5 mph - N/A   Clear
8:53 PM 33.1 °F - 27.0 °F 78% 30.21 in 10.0 mi Calm Calm - N/A   Clear
9:53 PM 32.0 °F 28.7 °F 27.0 °F 82% 30.21 in 10.0 mi South 3.5 mph - N/A   Clear
10:53 PM 30.0 °F 26.5 °F 26.1 °F 85% 30.21 in 9.0 mi South 3.5 mph - N/A   Clear
11:53 PM 34.0 °F - 27.0 °F 75% 30.21 in 10.0 mi Calm Calm - N/A   Clear